| time (UTC) | temp F | wind direction | speed knots | gust knots | rain 1hr in | rain 24hr in | rain mn in | humidity % | barometer mb |
| 20260504110444 | 57 | 79 | 3.5 | 8.7 | 0.00 | 0.25 | 0.25 | 87 | 1006.0 |
| 20260504100406 | 56 | 127 | 2.6 | 4.3 | 0.00 | 0.25 | 0.25 | 91 | 1006.7 |
| 20260504081800 | 56 | 54 | 0.0 | 0.0 | 0.00 | 0.25 | 0.25 | 95 | 1007.1 |
| 20260504081256 | 56 | 104 | 0.9 | 2.6 | 0.00 | 0.25 | 0.25 | 95 | 1007.3 |
| 20260504080753 | 56 | 28 | 1.7 | 1.7 | 0.00 | 0.25 | 0.25 | 95 | 1007.6 |
| 20260504080249 | 56 | 69 | 0.9 | 0.9 | 0.00 | 0.25 | 0.25 | 94 | 1007.8 |
| 20260504070217 | 57 | 47 | 1.7 | 2.6 | 0.07 | 0.24 | 0.24 | 93 | 1006.8 |
| 20260504060137 | 55 | 83 | 0.0 | 2.6 | 0.02 | 0.08 | 0.08 | 92 | 1007.9 |
| 20260504050605 | 61 | 26 | 2.6 | 3.5 | 0.00 | 0.00 | 0.00 | 66 | 1008.1 |
| 20260504045559 | 61 | 244 | 1.7 | 2.6 | 0.00 | 0.00 | 0.00 | 64 | 1007.8 |
| 20260504045054 | 61 | 127 | 4.3 | 4.3 | 0.00 | 0.00 | 0.00 | 63 | 1007.6 |
| 20260504044552 | 61 | 67 | 2.6 | 4.3 | 0.00 | 0.00 | 0.00 | 63 | 1007.5 |
| 20260504044049 | 61 | 80 | 2.6 | 2.6 | 0.00 | 0.00 | 0.00 | 63 | 1007.2 |
| 20260504043546 | 61 | 50 | 3.5 | 4.3 | 0.00 | 0.00 | 0.00 | 62 | 1007.4 |
| 20260504043043 | 61 | 48 | 3.5 | 3.5 | 0.00 | 0.00 | 0.00 | 61 | 1007.7 |
| 20260504042540 | 62 | 57 | 1.7 | 1.7 | 0.00 | 0.00 | 0.00 | 61 | 1007.7 |
| 20260504042037 | 62 | 87 | 1.7 | 3.5 | 0.00 | 0.00 | 0.00 | 60 | 1008.0 |
| 20260504041533 | 62 | 73 | 0.9 | 1.7 | 0.00 | 0.00 | 0.00 | 61 | 1008.1 |
| 20260504041029 | 62 | 69 | 0.0 | 1.7 | 0.00 | 0.00 | 0.00 | 59 | 1007.9 |
| 20260504040527 | 63 | 103 | 1.7 | 3.5 | 0.00 | 0.00 | 0.00 | 59 | 1008.1 |
| 20260504040024 | 63 | 82 | 0.9 | 3.5 | 0.00 | 0.00 | 0.00 | 59 | 1008.3 |
| 20260504035521 | 63 | 107 | 1.7 | 4.3 | 0.00 | 0.00 | 0.00 | 58 | 1008.1 |
| 20260504035017 | 63 | 104 | 1.7 | 5.2 | 0.00 | 0.00 | 0.00 | 58 | 1008.1 |
| 20260504034515 | 63 | 36 | 1.7 | 4.3 | 0.00 | 0.00 | 0.00 | 58 | 1008.3 |
| 20260504034011 | 64 | 96 | 2.6 | 3.5 | 0.00 | 0.00 | 0.00 | 57 | 1008.1 |
| 20260504033509 | 64 | 35 | 0.0 | 1.7 | 0.00 | 0.00 | 0.00 | 58 | 1008.1 |
| 20260504033007 | 64 | 67 | 1.7 | 4.3 | 0.00 | 0.00 | 0.00 | 56 | 1008.3 |
| 20260504032503 | 64 | 77 | 1.7 | 2.6 | 0.00 | 0.00 | 0.00 | 56 | 1008.4 |
| 20260504032000 | 64 | 87 | 0.9 | 3.5 | 0.00 | 0.00 | 0.00 | 55 | 1008.4 |
| 20260504031456 | 64 | 74 | 0.9 | 2.6 | 0.00 | 0.00 | 0.00 | 55 | 1008.4 |
| 20260504030953 | 65 | 79 | 2.6 | 3.5 | 0.00 | 0.00 | 0.00 | 55 | 1008.5 |
| 20260504030451 | 65 | 38 | 0.9 | 3.5 | 0.00 | 0.00 | 0.00 | 55 | 1008.5 |
| 20260504025946 | 65 | 96 | 1.7 | 3.5 | 0.00 | 0.00 | 0.00 | 54 | 1008.3 |
| 20260504025443 | 65 | 99 | 1.7 | 4.3 | 0.00 | 0.00 | 0.00 | 53 | 1008.4 |
| 20260504024940 | 65 | 104 | 3.5 | 7.0 | 0.00 | 0.00 | 0.00 | 54 | 1008.4 |
| 20260504024437 | 66 | 269 | 0.0 | 3.5 | 0.00 | 0.00 | 0.00 | 54 | 1008.4 |
| 20260504023934 | 66 | 89 | 2.6 | 5.2 | 0.00 | 0.00 | 0.00 | 53 | 1008.4 |
| 20260504023431 | 66 | 83 | 3.5 | 4.3 | 0.00 | 0.00 | 0.00 | 52 | 1008.6 |
| 20260504022926 | 66 | 94 | 3.5 | 3.5 | 0.00 | 0.00 | 0.00 | 53 | 1008.6 |
| 20260504022423 | 66 | 4 | 1.7 | 6.1 | 0.00 | 0.00 | 0.00 | 52 | 1008.7 |
| 20260504021920 | 66 | 287 | 0.0 | 4.3 | 0.00 | 0.00 | 0.00 | 52 | 1008.4 |
| 20260504021417 | 66 | 281 | 1.7 | 5.2 | 0.00 | 0.00 | 0.00 | 53 | 1008.3 |
| 20260504020914 | 66 | 76 | 0.9 | 3.5 | 0.00 | 0.00 | 0.00 | 54 | 1008.2 |
| 20260504020411 | 66 | 96 | 1.7 | 3.5 | 0.00 | 0.00 | 0.00 | 52 | 1008.2 |
| 20260504015907 | 66 | 69 | 2.6 | 2.6 | 0.00 | 0.00 | 0.00 | 52 | 1008.3 |
| 20260504015403 | 66 | 77 | 2.6 | 2.6 | 0.00 | 0.00 | 0.00 | 51 | 1008.3 |
| 20260504014859 | 67 | 80 | 1.7 | 1.7 | 0.00 | 0.00 | 0.00 | 51 | 1008.2 |
| 20260504014355 | 67 | 60 | 1.7 | 3.5 | 0.00 | 0.00 | 0.00 | 50 | 1008.4 |
| 20260504013853 | 67 | 91 | 0.9 | 3.5 | 0.00 | 0.00 | 0.00 | 50 | 1008.1 |
| 20260504013351 | 67 | 112 | 2.6 | 4.3 | 0.00 | 0.00 | 0.00 | 50 | 1008.0 |
| 20260504012847 | 67 | 99 | 7.0 | 7.8 | 0.00 | 0.00 | 0.00 | 51 | 1008.1 |
| 20260504012345 | 67 | 83 | 2.6 | 6.1 | 0.00 | 0.00 | 0.00 | 50 | 1007.9 |
| 20260504011842 | 67 | 77 | 1.7 | 3.5 | 0.00 | 0.00 | 0.00 | 50 | 1008.1 |
| 20260504011339 | 67 | 74 | 1.7 | 2.6 | 0.00 | 0.00 | 0.00 | 49 | 1008.1 |
| 20260504010835 | 68 | 95 | 1.7 | 2.6 | 0.00 | 0.00 | 0.00 | 49 | 1008.0 |
| 20260504010330 | 68 | 117 | 1.7 | 5.2 | 0.00 | 0.00 | 0.00 | 47 | 1007.9 |
| 20260504005827 | 68 | 105 | 1.7 | 5.2 | 0.00 | 0.00 | 0.00 | 48 | 1008.0 |
| 20260504005324 | 68 | 93 | 1.7 | 5.2 | 0.00 | 0.00 | 0.00 | 47 | 1007.9 |
| 20260504004822 | 68 | 77 | 1.7 | 3.5 | 0.00 | 0.00 | 0.00 | 47 | 1007.9 |
| 20260504004319 | 68 | 110 | 1.7 | 5.2 | 0.00 | 0.00 | 0.00 | 47 | 1007.8 |
| 20260504003815 | 69 | 72 | 4.3 | 6.1 | 0.00 | 0.00 | 0.00 | 47 | 1008.0 |
| 20260504003312 | 69 | 115 | 2.6 | 4.3 | 0.00 | 0.00 | 0.00 | 47 | 1007.8 |
| 20260504002808 | 69 | 41 | 1.7 | 5.2 | 0.00 | 0.00 | 0.00 | 47 | 1007.6 |
| 20260504002306 | 69 | 82 | 2.6 | 6.1 | 0.00 | 0.00 | 0.00 | 47 | 1007.7 |
| 20260504001804 | 69 | 105 | 2.6 | 4.3 | 0.00 | 0.00 | 0.00 | 46 | 1007.8 |
| 20260504001300 | 69 | 102 | 1.7 | 5.2 | 0.00 | 0.00 | 0.00 | 46 | 1008.0 |
| 20260504000757 | 69 | 118 | 3.5 | 5.2 | 0.00 | 0.00 | 0.00 | 46 | 1007.9 |
| 20260504000254 | 69 | 106 | 3.5 | 4.3 | 0.00 | 0.00 | 0.00 | 46 | 1008.1 |
| 20260503235752 | 70 | 106 | 3.5 | 5.2 | 0.00 | 0.00 | 0.00 | 45 | 1008.0 |
| 20260503235249 | 70 | 145 | 3.5 | 4.3 | 0.00 | 0.00 | 0.00 | 44 | 1008.0 |
| 20260503234747 | 70 | 67 | 2.6 | 4.3 | 0.00 | 0.00 | 0.00 | 45 | 1007.9 |
| 20260503234245 | 70 | 72 | 1.7 | 3.5 | 0.00 | 0.00 | 0.00 | 44 | 1008.0 |
| 20260503233741 | 70 | 119 | 1.7 | 7.8 | 0.00 | 0.00 | 0.00 | 43 | 1008.0 |
| 20260503233238 | 71 | 112 | 1.7 | 7.0 | 0.00 | 0.00 | 0.00 | 43 | 1007.9 |
| 20260503232735 | 71 | 110 | 2.6 | 5.2 | 0.00 | 0.00 | 0.00 | 42 | 1008.4 |
| 20260503232232 | 71 | 49 | 5.2 | 5.2 | 0.00 | 0.00 | 0.00 | 42 | 1008.3 |
| 20260503231730 | 71 | 114 | 1.7 | 3.5 | 0.00 | 0.00 | 0.00 | 41 | 1008.2 |
| 20260503231226 | 72 | 110 | 1.7 | 4.3 | 0.00 | 0.00 | 0.00 | 42 | 1007.9 |
| 20260503230722 | 72 | 74 | 0.9 | 7.8 | 0.00 | 0.00 | 0.00 | 40 | 1008.4 |
| 20260503230220 | 72 | 302 | 2.6 | 3.5 | 0.00 | 0.00 | 0.00 | 40 | 1008.7 |
| 20260503225717 | 73 | 109 | 7.8 | 8.7 | 0.00 | 0.00 | 0.00 | 38 | 1008.5 |
| 20260503225217 | 73 | 86 | 4.3 | 5.2 | 0.00 | 0.00 | 0.00 | 38 | 1008.7 |
| 20260503224715 | 74 | 225 | 2.6 | 7.0 | 0.00 | 0.00 | 0.00 | 37 | 1008.8 |
| 20260503224213 | 75 | 359 | 0.9 | 7.8 | 0.00 | 0.00 | 0.00 | 41 | 1008.6 |
| 20260503223710 | 74 | 158 | 0.0 | 5.2 | 0.00 | 0.00 | 0.00 | 42 | 1008.9 |
| 20260503223207 | 74 | 276 | 2.6 | 6.1 | 0.00 | 0.00 | 0.00 | 39 | 1009.0 |
| 20260503222703 | 74 | 355 | 2.6 | 7.8 | 0.00 | 0.00 | 0.00 | 38 | 1009.1 |
| 20260503222201 | 73 | 121 | 2.6 | 7.0 | 0.00 | 0.00 | 0.00 | 37 | 1008.7 |
| 20260503221700 | 73 | 67 | 3.5 | 7.8 | 0.00 | 0.00 | 0.00 | 37 | 1009.3 |
| 20260503221156 | 74 | 87 | 1.7 | 7.8 | 0.00 | 0.00 | 0.00 | 37 | 1009.0 |
| 20260503220653 | 74 | 119 | 5.2 | 9.6 | 0.00 | 0.00 | 0.00 | 37 | 1008.9 |
| 20260503220150 | 73 | 264 | 4.3 | 8.7 | 0.00 | 0.00 | 0.00 | 37 | 1009.1 |
| 20260503215647 | 73 | 93 | 5.2 | 12.2 | 0.00 | 0.00 | 0.00 | 37 | 1009.1 |
| 20260503215143 | 73 | 36 | 6.1 | 12.2 | 0.00 | 0.00 | 0.00 | 36 | 1008.9 |
| 20260503214642 | 73 | 282 | 2.6 | 10.4 | 0.00 | 0.00 | 0.00 | 38 | 1009.0 |
| 20260503214138 | 73 | 38 | 2.6 | 10.4 | 0.00 | 0.00 | 0.00 | 40 | 1008.9 |
| 20260503213637 | 73 | 216 | 7.8 | 11.3 | 0.00 | 0.00 | 0.00 | 37 | 1008.9 |
| 20260503213133 | 73 | 215 | 1.7 | 7.0 | 0.00 | 0.00 | 0.00 | 38 | 1008.8 |
| 20260503212631 | 73 | 57 | 1.7 | 6.1 | 0.00 | 0.00 | 0.00 | 38 | 1009.0 |
| 20260503212129 | 73 | 218 | 5.2 | 5.2 | 0.00 | 0.00 | 0.00 | 37 | 1009.4 |
| 20260503211626 | 72 | 250 | 2.6 | 12.2 | 0.00 | 0.00 | 0.00 | 36 | 1009.6 |
| 20260503211121 | 71 | 268 | 3.5 | 14.8 | 0.00 | 0.00 | 0.00 | 38 | 1009.6 |
| 20260503210618 | 72 | 119 | 9.6 | 10.4 | 0.00 | 0.00 | 0.00 | 36 | 1009.5 |
| 20260503210115 | 72 | 212 | 5.2 | 7.8 | 0.00 | 0.00 | 0.00 | 36 | 1009.4 |
| 20260503205611 | 71 | 254 | 1.7 | 5.2 | 0.00 | 0.00 | 0.00 | 40 | 1009.5 |
| 20260503205107 | 70 | 114 | 4.3 | 11.3 | 0.00 | 0.00 | 0.00 | 39 | 1009.4 |
| 20260503204604 | 70 | 303 | 5.2 | 13.0 | 0.00 | 0.00 | 0.00 | 38 | 1009.4 |
| 20260503204101 | 71 | 97 | 4.3 | 12.2 | 0.00 | 0.00 | 0.00 | 37 | 1009.3 |
| 20260503203558 | 71 | 61 | 4.3 | 11.3 | 0.00 | 0.00 | 0.00 | 38 | 1009.7 |
| 20260503203055 | 70 | 87 | 6.1 | 9.6 | 0.00 | 0.00 | 0.00 | 37 | 1009.8 |
| 20260503202553 | 70 | 116 | 13.0 | 13.0 | 0.00 | 0.00 | 0.00 | 37 | 1009.8 |
| 20260503202051 | 70 | 112 | 13.0 | 13.9 | 0.00 | 0.00 | 0.00 | 35 | 1009.6 |
| 20260503201549 | 70 | 93 | 1.7 | 7.0 | 0.00 | 0.00 | 0.00 | 38 | 1009.8 |
| 20260503201046 | 70 | 244 | 5.2 | 15.6 | 0.00 | 0.00 | 0.00 | 37 | 1009.9 |
| 20260503200541 | 70 | 332 | 2.6 | 9.6 | 0.00 | 0.00 | 0.00 | 40 | 1010.1 |
| 20260503200038 | 69 | 108 | 7.8 | 16.5 | 0.00 | 0.00 | 0.00 | 38 | 1010.2 |
| 20260503195536 | 70 | 238 | 7.0 | 9.6 | 0.00 | 0.00 | 0.00 | 37 | 1010.5 |
| 20260503195032 | 70 | 114 | 3.5 | 7.0 | 0.00 | 0.00 | 0.00 | 38 | 1010.5 |
| 20260503194529 | 70 | 255 | 6.1 | 12.2 | 0.00 | 0.00 | 0.00 | 38 | 1010.6 |
| 20260503194029 | 69 | 217 | 0.9 | 7.0 | 0.00 | 0.00 | 0.00 | 37 | 1010.7 |
| 20260503193527 | 69 | 301 | 4.3 | 12.2 | 0.00 | 0.00 | 0.00 | 37 | 1011.0 |
| 20260503193021 | 70 | 33 | 3.5 | 11.3 | 0.00 | 0.00 | 0.00 | 36 | 1011.3 |
| 20260503192518 | 69 | 105 | 5.2 | 12.2 | 0.00 | 0.00 | 0.00 | 38 | 1011.2 |
| 20260503192014 | 69 | 241 | 2.6 | 7.0 | 0.00 | 0.00 | 0.00 | 38 | 1011.2 |
| 20260503191511 | 69 | 274 | 4.3 | 15.6 | 0.00 | 0.00 | 0.00 | 39 | 1011.9 |
| 20260503191008 | 69 | 91 | 2.6 | 13.9 | 0.00 | 0.00 | 0.00 | 39 | 1012.0 |
| 20260503190505 | 69 | 300 | 3.5 | 13.0 | 0.00 | 0.00 | 0.00 | 41 | 1012.2 |
| 20260503190002 | 68 | 359 | 2.6 | 7.0 | 0.00 | 0.00 | 0.00 | 43 | 1012.3 |
| 20260503185458 | 69 | 144 | 5.2 | 8.7 | 0.00 | 0.00 | 0.00 | 38 | 1012.2 |
| 20260503184957 | 68 | 137 | 1.7 | 7.8 | 0.00 | 0.00 | 0.00 | 39 | 1012.4 |
| 20260503184454 | 68 | 95 | 1.7 | 13.0 | 0.00 | 0.00 | 0.00 | 40 | 1012.6 |
| 20260503183951 | 68 | 228 | 7.0 | 9.6 | 0.00 | 0.00 | 0.00 | 42 | 1012.9 |
| 20260503183447 | 68 | 265 | 4.3 | 16.5 | 0.00 | 0.00 | 0.00 | 41 | 1012.9 |
| 20260503182944 | 67 | 185 | 1.7 | 13.0 | 0.00 | 0.00 | 0.00 | 43 | 1012.8 |
| 20260503182443 | 68 | 101 | 1.7 | 8.7 | 0.00 | 0.00 | 0.00 | 42 | 1013.0 |
| 20260503181940 | 68 | 223 | 2.6 | 11.3 | 0.00 | 0.00 | 0.00 | 45 | 1013.1 |
| 20260503181437 | 68 | 291 | 6.1 | 8.7 | 0.00 | 0.00 | 0.00 | 42 | 1013.5 |
| 20260503180933 | 68 | 359 | 5.2 | 12.2 | 0.00 | 0.00 | 0.00 | 42 | 1013.6 |
| 20260503180431 | 68 | 159 | 0.0 | 9.6 | 0.00 | 0.00 | 0.00 | 41 | 1013.8 |
| 20260503175928 | 67 | 84 | 0.9 | 5.2 | 0.00 | 0.00 | 0.00 | 43 | 1014.1 |
| 20260503175426 | 67 | 204 | 4.3 | 7.8 | 0.00 | 0.00 | 0.00 | 42 | 1014.2 |
| 20260503174922 | 67 | 34 | 6.1 | 7.8 | 0.00 | 0.00 | 0.00 | 44 | 1014.6 |
| 20260503174420 | 67 | 212 | 3.5 | 7.0 | 0.00 | 0.00 | 0.00 | 42 | 1014.8 |
| 20260503173920 | 66 | 267 | 3.5 | 8.7 | 0.00 | 0.00 | 0.00 | 45 | 1014.6 |
| 20260503173417 | 66 | 22 | 3.5 | 11.3 | 0.00 | 0.00 | 0.00 | 47 | 1014.7 |
| 20260503172913 | 65 | 110 | 3.5 | 12.2 | 0.00 | 0.00 | 0.00 | 48 | 1014.9 |
| 20260503172411 | 65 | 126 | 4.3 | 11.3 | 0.00 | 0.00 | 0.00 | 45 | 1014.7 |
| 20260503171907 | 65 | 119 | 6.1 | 13.9 | 0.00 | 0.00 | 0.00 | 43 | 1015.0 |
| 20260503171404 | 65 | 87 | 4.3 | 7.8 | 0.00 | 0.00 | 0.00 | 49 | 1014.9 |
| 20260503170901 | 65 | 1 | 5.2 | 7.8 | 0.00 | 0.00 | 0.00 | 44 | 1014.7 |
| 20260503170357 | 64 | 254 | 2.6 | 12.2 | 0.00 | 0.00 | 0.00 | 46 | 1014.7 |
| 20260503150750 | 59 | 76 | 7.8 | 10.4 | 0.00 | 0.00 | 0.00 | 54 | 1016.7 |
| 20260503150246 | 60 | 145 | 2.6 | 12.2 | 0.00 | 0.00 | 0.00 | 54 | 1016.9 |
| 20260503140210 | 55 | 228 | 2.6 | 7.8 | 0.00 | 0.00 | 0.00 | 65 | 1017.2 |
| 20260503131140 | 50 | 154 | 2.6 | 7.0 | 0.00 | 0.00 | 0.00 | 71 | 1017.9 |
| 20260503130637 | 50 | 74 | 2.6 | 12.2 | 0.00 | 0.00 | 0.00 | 72 | 1017.6 |
| 20260503130135 | 50 | 64 | 2.6 | 3.5 | 0.00 | 0.00 | 0.00 | 73 | 1017.9 |